date,time,SUV Intensity [MED/Hr],UV Index,Daily total [MED],Since Last [MED]
04/08/2022,00:11:14,0.000,0.0,0.0,0.0
04/08/2022,00:12:14,0.000,0.0,0.0,0.0
04/08/2022,00:13:13,0.000,0.0,0.0,0.0
04/08/2022,00:14:13,-0.000,0.0,0.0,0.0
04/08/2022,00:15:13,0.000,0.0,0.0,0.0
04/08/2022,00:16:13,0.000,0.0,0.0,0.0
04/08/2022,00:17:13,-0.000,0.0,0.0,0.0
04/08/2022,00:18:13,-0.001,0.0,0.0,0.0
04/08/2022,00:19:13,0.000,0.0,0.0,0.0
04/08/2022,00:20:13,0.000,0.0,0.0,0.0
04/08/2022,00:21:13,-0.001,0.0,0.0,0.0
04/08/2022,00:22:13,0.000,0.0,0.0,0.0
04/08/2022,00:23:14,0.000,0.0,0.0,0.0
04/08/2022,00:24:13,0.000,0.0,0.0,0.0
04/08/2022,00:25:13,0.000,0.0,0.0,0.0
04/08/2022,00:26:30,-0.001,0.0,0.0,0.0
04/08/2022,00:28:14,0.000,0.0,0.0,0.0
04/08/2022,00:29:13,0.000,0.0,0.0,0.0
04/08/2022,00:30:13,0.000,0.0,0.0,0.0
04/08/2022,00:31:14,0.000,0.0,0.0,0.0
04/08/2022,00:32:13,0.000,0.0,0.0,0.0
04/08/2022,00:33:21,0.000,0.0,0.0,0.0
04/08/2022,00:34:13,0.000,0.0,0.0,0.0
04/08/2022,00:35:14,-0.000,0.0,0.0,0.0
04/08/2022,00:36:05,0.000,0.0,0.0,0.0
04/08/2022,00:37:14,0.000,0.0,0.0,0.0
04/08/2022,00:38:13,0.000,0.0,0.0,0.0
04/08/2022,00:39:13,0.000,0.0,0.0,0.0
04/08/2022,00:40:13,0.000,0.0,0.0,0.0
04/08/2022,00:41:13,0.000,0.0,0.0,0.0
04/08/2022,00:42:13,0.000,0.0,0.0,0.0
04/08/2022,00:43:13,0.000,0.0,0.0,0.0
04/08/2022,00:44:13,0.000,0.0,0.0,0.0
04/08/2022,00:45:13,0.000,0.0,0.0,0.0
04/08/2022,00:46:13,0.000,0.0,0.0,0.0
04/08/2022,00:47:13,0.000,0.0,0.0,0.0
04/08/2022,00:48:13,0.000,0.0,0.0,0.0
04/08/2022,00:49:14,0.000,0.0,0.0,0.0
04/08/2022,00:50:13,0.000,0.0,0.0,0.0
04/08/2022,00:51:13,0.000,0.0,0.0,0.0
04/08/2022,00:52:13,-0.001,0.0,0.0,0.0
04/08/2022,00:53:13,0.000,0.0,0.0,0.0
04/08/2022,00:54:13,0.000,0.0,0.0,0.0
04/08/2022,00:55:13,0.000,0.0,0.0,0.0
04/08/2022,00:56:13,0.000,0.0,0.0,0.0
04/08/2022,00:57:13,0.000,0.0,0.0,0.0
04/08/2022,00:58:13,0.000,0.0,0.0,0.0
04/08/2022,00:59:13,0.000,0.0,0.0,0.0
04/08/2022,01:00:13,-0.001,0.0,0.0,0.0
04/08/2022,01:01:13,0.000,0.0,0.0,0.0
04/08/2022,01:02:13,0.000,0.0,0.0,0.0
04/08/2022,01:03:13,-0.000,0.0,0.0,0.0
04/08/2022,01:04:13,0.000,0.0,0.0,0.0
04/08/2022,01:05:14,0.000,0.0,0.0,0.0
04/08/2022,01:06:13,0.000,0.0,0.0,0.0
04/08/2022,01:07:22,0.000,0.0,0.0,0.0
04/08/2022,01:08:13,0.000,0.0,0.0,0.0
04/08/2022,01:09:14,0.000,0.0,0.0,0.0
04/08/2022,01:10:21,0.000,0.0,0.0,0.0
04/08/2022,01:11:15,0.000,0.0,0.0,0.0
04/08/2022,01:12:13,0.000,0.0,0.0,0.0
04/08/2022,01:13:13,0.000,0.0,0.0,0.0
04/08/2022,01:14:14,0.000,0.0,0.0,0.0
04/08/2022,01:15:22,0.000,0.0,0.0,0.0
04/08/2022,01:16:13,0.000,0.0,0.0,0.0
04/08/2022,01:17:13,0.000,0.0,0.0,0.0
04/08/2022,01:18:21,0.000,0.0,0.0,0.0
04/08/2022,01:19:13,0.000,0.0,0.0,0.0
04/08/2022,01:20:13,0.000,0.0,0.0,0.0
04/08/2022,01:21:14,-0.001,0.0,0.0,0.0
04/08/2022,01:22:13,0.000,0.0,0.0,0.0
04/08/2022,01:23:13,0.000,0.0,0.0,0.0
04/08/2022,01:24:15,0.000,0.0,0.0,0.0
04/08/2022,01:25:13,0.000,0.0,0.0,0.0
04/08/2022,01:26:13,0.000,0.0,0.0,0.0
04/08/2022,01:27:13,0.000,0.0,0.0,0.0
04/08/2022,01:28:13,0.000,0.0,0.0,0.0
04/08/2022,01:29:13,0.000,0.0,0.0,0.0
04/08/2022,01:30:13,0.000,0.0,0.0,0.0
04/08/2022,01:31:13,0.000,0.0,0.0,0.0
04/08/2022,01:32:13,0.000,0.0,0.0,0.0
04/08/2022,01:33:21,0.000,0.0,0.0,0.0
04/08/2022,01:34:14,0.000,0.0,0.0,0.0
04/08/2022,01:35:14,0.000,0.0,0.0,0.0
04/08/2022,01:36:15,0.000,0.0,0.0,0.0
04/08/2022,01:37:13,0.000,0.0,0.0,0.0
04/08/2022,01:38:14,0.000,0.0,0.0,0.0
04/08/2022,01:39:13,0.000,0.0,0.0,0.0
04/08/2022,01:40:13,0.000,0.0,0.0,0.0
04/08/2022,01:41:13,0.000,0.0,0.0,0.0
04/08/2022,01:42:14,0.000,0.0,0.0,0.0
04/08/2022,01:43:14,0.000,0.0,0.0,0.0
04/08/2022,01:44:21,0.000,0.0,0.0,0.0
04/08/2022,01:45:13,0.000,0.0,0.0,0.0
04/08/2022,01:46:13,0.000,0.0,0.0,0.0
04/08/2022,01:47:13,0.000,0.0,0.0,0.0
04/08/2022,01:48:14,0.000,0.0,0.0,0.0
04/08/2022,01:49:13,0.000,0.0,0.0,0.0
04/08/2022,01:50:13,0.000,0.0,0.0,0.0
04/08/2022,01:51:14,0.000,0.0,0.0,0.0
04/08/2022,01:52:13,0.000,0.0,0.0,0.0
04/08/2022,01:53:13,0.000,0.0,0.0,0.0
04/08/2022,01:54:13,0.000,0.0,0.0,0.0
04/08/2022,01:55:13,0.001,0.0,0.0,0.0
04/08/2022,01:56:14,0.000,0.0,0.0,0.0
04/08/2022,01:57:13,0.000,0.0,0.0,0.0
04/08/2022,01:58:14,0.001,0.0,0.0,0.0
04/08/2022,01:59:22,0.000,0.0,0.0,0.0
04/08/2022,02:00:13,0.001,0.0,0.0,0.0
04/08/2022,02:01:13,0.001,0.0,0.0,0.0
04/08/2022,02:02:13,0.001,0.0,0.0,0.0
04/08/2022,02:03:13,0.001,0.0,0.0,0.0
04/08/2022,02:04:22,0.001,0.0,0.0,0.0
04/08/2022,02:05:12,0.001,0.0,0.0,0.0
04/08/2022,02:06:13,0.000,0.0,0.0,0.0
04/08/2022,02:07:22,0.001,0.0,0.0,0.0
04/08/2022,02:08:13,0.001,0.0,0.0,0.0
04/08/2022,02:09:13,0.001,0.0,0.0,0.0
04/08/2022,02:10:13,0.001,0.0,0.0,0.0
04/08/2022,02:11:13,0.000,0.0,0.0,0.0
04/08/2022,02:12:13,0.001,0.0,0.0,0.0
04/08/2022,02:13:13,0.001,0.0,0.0,0.0
04/08/2022,02:14:13,0.002,0.0,0.0,0.0
04/08/2022,02:15:13,0.001,0.0,0.0,0.0
04/08/2022,02:16:13,0.000,0.0,0.0,0.0
04/08/2022,02:17:13,0.001,0.0,0.0,0.0
04/08/2022,02:18:13,0.000,0.0,0.0,0.0
04/08/2022,02:19:13,0.001,0.0,0.0,0.0
04/08/2022,02:20:14,0.001,0.0,0.0,0.0
04/08/2022,02:21:13,0.000,0.0,0.0,0.0
04/08/2022,02:22:13,0.001,0.0,0.0,0.0
04/08/2022,02:23:04,0.001,0.0,0.0,0.0
04/08/2022,02:24:14,0.001,0.0,0.0,0.0
04/08/2022,02:25:14,0.000,0.0,0.0,0.0
04/08/2022,02:26:14,0.001,0.0,0.0,0.0
04/08/2022,02:27:13,0.001,0.0,0.0,0.0
04/08/2022,02:28:13,0.001,0.0,0.0,0.0
04/08/2022,02:29:13,0.001,0.0,0.0,0.0
04/08/2022,02:30:13,0.000,0.0,0.0,0.0
04/08/2022,02:31:13,0.000,0.0,0.0,0.0
04/08/2022,02:32:13,0.001,0.0,0.0,0.0
04/08/2022,02:33:21,0.001,0.0,0.0,0.0
04/08/2022,02:34:14,0.001,0.0,0.0,0.0
04/08/2022,02:35:14,0.001,0.0,0.0,0.0
04/08/2022,02:36:22,0.001,0.0,0.0,0.0
04/08/2022,02:37:13,0.001,0.0,0.0,0.0
04/08/2022,02:38:14,0.001,0.0,0.0,0.0
04/08/2022,02:39:13,0.002,0.0,0.0,0.0
04/08/2022,02:40:13,0.001,0.0,0.0,0.0
04/08/2022,02:41:13,0.001,0.0,0.0,0.0
04/08/2022,02:42:13,0.002,0.0,0.0,0.0
04/08/2022,02:43:14,0.002,0.0,0.0,0.0
04/08/2022,02:44:21,0.001,0.0,0.0,0.0
04/08/2022,02:45:14,0.001,0.0,0.0,0.0
04/08/2022,02:46:13,0.001,0.0,0.0,0.0
04/08/2022,02:47:15,0.001,0.0,0.0,0.0
04/08/2022,02:48:13,0.001,0.0,0.0,0.0
04/08/2022,02:49:14,0.000,0.0,0.0,0.0
04/08/2022,02:50:13,0.002,0.0,0.0,0.0
04/08/2022,02:51:14,0.001,0.0,0.0,0.0
04/08/2022,02:52:13,0.001,0.0,0.0,0.0
04/08/2022,02:53:13,0.001,0.0,0.0,0.0
04/08/2022,02:54:13,0.001,0.0,0.0,0.0
04/08/2022,02:55:13,0.001,0.0,0.0,0.0
04/08/2022,02:56:13,0.001,0.0,0.0,0.0
04/08/2022,02:57:14,0.001,0.0,0.0,0.0
04/08/2022,02:58:13,0.001,0.0,0.0,0.0
04/08/2022,02:59:22,0.001,0.0,0.0,0.0
04/08/2022,03:00:15,0.001,0.0,0.0,0.0
04/08/2022,03:01:13,0.001,0.0,0.0,0.0
04/08/2022,03:02:22,0.001,0.0,0.0,0.0
04/08/2022,03:03:14,0.002,0.0,0.0,0.0
04/08/2022,03:04:14,0.001,0.0,0.0,0.0
04/08/2022,03:05:13,0.001,0.0,0.0,0.0
04/08/2022,03:06:14,0.001,0.0,0.0,0.0
04/08/2022,03:07:13,0.001,0.0,0.0,0.0
04/08/2022,03:08:13,0.001,0.0,0.0,0.0
04/08/2022,03:09:13,0.001,0.0,0.0,0.0
04/08/2022,03:10:13,0.000,0.0,0.0,0.0
04/08/2022,03:11:13,0.002,0.0,0.0,0.0
04/08/2022,03:12:13,0.001,0.0,0.0,0.0
04/08/2022,03:13:13,0.001,0.0,0.0,0.0
04/08/2022,03:14:14,0.001,0.0,0.0,0.0
04/08/2022,03:15:14,0.000,0.0,0.0,0.0
04/08/2022,03:16:14,0.001,0.0,0.0,0.0
04/08/2022,03:17:14,0.002,0.0,0.0,0.0
04/08/2022,03:18:14,0.001,0.0,0.0,0.0
04/08/2022,03:19:13,0.001,0.0,0.0,0.0
04/08/2022,03:20:13,0.002,0.0,0.0,0.0
04/08/2022,03:21:14,0.000,0.0,0.0,0.0
04/08/2022,03:22:13,0.001,0.0,0.0,0.0
04/08/2022,03:23:14,0.001,0.0,0.0,0.0
04/08/2022,03:24:13,0.000,0.0,0.0,0.0
04/08/2022,03:25:13,0.001,0.0,0.0,0.0
04/08/2022,03:26:13,0.001,0.0,0.0,0.0
04/08/2022,03:27:13,0.002,0.0,0.0,0.0
04/08/2022,03:28:22,0.001,0.0,0.0,0.0
04/08/2022,03:29:13,0.000,0.0,0.0,0.0
04/08/2022,03:30:13,0.001,0.0,0.0,0.0
04/08/2022,03:31:13,0.001,0.0,0.0,0.0
04/08/2022,03:32:14,0.001,0.0,0.0,0.0
04/08/2022,03:33:22,0.000,0.0,0.0,0.0
04/08/2022,03:34:13,0.001,0.0,0.0,0.0
04/08/2022,03:35:14,0.001,0.0,0.0,0.0
04/08/2022,03:36:13,0.001,0.0,0.0,0.0
04/08/2022,03:37:14,0.001,0.0,0.0,0.0
04/08/2022,03:38:13,0.001,0.0,0.0,0.0
04/08/2022,03:39:13,0.002,0.0,0.0,0.0
04/08/2022,03:40:14,0.001,0.0,0.0,0.0
04/08/2022,03:41:13,0.001,0.0,0.0,0.0
04/08/2022,03:42:14,0.001,0.0,0.0,0.0
04/08/2022,03:43:13,0.002,0.0,0.0,0.0
04/08/2022,03:44:13,0.001,0.0,0.0,0.0
04/08/2022,03:45:13,0.001,0.0,0.0,0.0
04/08/2022,03:46:14,0.000,0.0,0.0,0.0
04/08/2022,03:47:13,0.001,0.0,0.0,0.0
04/08/2022,03:48:13,0.001,0.0,0.0,0.0
04/08/2022,03:49:13,0.001,0.0,0.0,0.0
04/08/2022,03:50:13,0.001,0.0,0.0,0.0
04/08/2022,03:51:13,0.001,0.0,0.0,0.0
04/08/2022,03:52:14,0.001,0.0,0.0,0.0
04/08/2022,03:53:13,0.001,0.0,0.0,0.0
04/08/2022,03:54:14,0.003,0.0,0.0,0.0
04/08/2022,03:55:14,0.001,0.0,0.0,0.0
04/08/2022,03:56:13,0.001,0.0,0.0,0.0
04/08/2022,03:57:14,0.001,0.0,0.0,0.0
04/08/2022,03:58:13,0.002,0.0,0.0,0.0
04/08/2022,03:59:22,0.001,0.0,0.0,0.0
04/08/2022,04:00:13,0.000,0.0,0.0,0.0
04/08/2022,04:01:13,0.001,0.0,0.0,0.0
04/08/2022,04:02:22,0.002,0.0,0.0,0.0
04/08/2022,04:03:13,0.002,0.0,0.0,0.0
04/08/2022,04:04:13,0.001,0.0,0.0,0.0
04/08/2022,04:05:14,0.002,0.0,0.0,0.0
04/08/2022,04:06:13,0.001,0.0,0.0,0.0
04/08/2022,04:07:14,0.001,0.0,0.0,0.0
04/08/2022,04:08:14,0.001,0.0,0.0,0.0
04/08/2022,04:09:13,0.001,0.0,0.0,0.0
04/08/2022,04:10:15,0.001,0.0,0.0,0.0
04/08/2022,04:11:13,0.002,0.0,0.0,0.0
04/08/2022,04:12:13,0.001,0.0,0.0,0.0
04/08/2022,04:13:13,0.002,0.0,0.0,0.0
04/08/2022,04:14:13,0.001,0.0,0.0,0.0
04/08/2022,04:15:14,0.002,0.0,0.0,0.0
04/08/2022,04:16:14,0.002,0.0,0.0,0.0
04/08/2022,04:17:15,0.001,0.0,0.0,0.0
04/08/2022,04:18:13,0.002,0.0,0.0,0.0
04/08/2022,04:19:14,0.001,0.0,0.0,0.0
04/08/2022,04:20:13,0.002,0.0,0.0,0.0
04/08/2022,04:21:14,0.001,0.0,0.0,0.0
04/08/2022,04:22:13,0.003,0.0,0.0,0.0
04/08/2022,04:23:13,0.002,0.0,0.0,0.0
04/08/2022,04:24:14,0.002,0.0,0.0,0.0
04/08/2022,04:25:14,0.002,0.0,0.0,0.0
04/08/2022,04:26:14,0.002,0.0,0.0,0.0
04/08/2022,04:27:14,0.003,0.0,0.0,0.0
04/08/2022,04:28:22,0.002,0.0,0.0,0.0
04/08/2022,04:29:13,0.002,0.0,0.0,0.0
04/08/2022,04:30:14,0.003,0.0,0.0,0.0
04/08/2022,04:31:14,0.002,0.0,0.0,0.0
04/08/2022,04:32:14,0.002,0.0,0.0,0.0
04/08/2022,04:33:14,0.002,0.0,0.0,0.0
04/08/2022,04:34:13,0.002,0.0,0.0,0.0
04/08/2022,04:35:13,0.003,0.0,0.0,0.0
04/08/2022,04:36:13,0.003,0.0,0.0,0.0
04/08/2022,04:37:13,0.003,0.0,0.0,0.0
04/08/2022,04:38:13,0.003,0.0,0.0,0.0
04/08/2022,04:39:14,0.004,0.0,0.0,0.0
04/08/2022,04:40:13,0.003,0.0,0.0,0.0
04/08/2022,04:41:14,0.004,0.0,0.0,0.0
04/08/2022,04:42:13,0.003,0.0,0.0,0.0
04/08/2022,04:43:13,0.004,0.0,0.0,0.0
04/08/2022,04:44:13,0.004,0.0,0.0,0.0
04/08/2022,04:45:14,0.004,0.0,0.0,0.0
04/08/2022,04:46:14,0.005,0.0,0.0,0.0
04/08/2022,04:47:14,0.004,0.0,0.0,0.0
04/08/2022,04:48:13,0.005,0.0,0.0,0.0
04/08/2022,04:49:13,0.005,0.0,0.0,0.0
04/08/2022,04:50:13,0.004,0.0,0.0,0.0
04/08/2022,04:51:14,0.005,0.0,0.0,0.0
04/08/2022,04:52:13,0.006,0.0,0.0,0.0
04/08/2022,04:53:13,0.005,0.0,0.0,0.0
04/08/2022,04:54:14,0.006,0.0,0.0,0.0
04/08/2022,04:55:14,0.005,0.0,0.0,0.0
04/08/2022,04:56:14,0.007,0.0,0.0,0.0
04/08/2022,04:57:14,0.006,0.0,0.0,0.0
04/08/2022,04:58:14,0.007,0.0,0.0,0.0
04/08/2022,04:59:14,0.007,0.0,0.001,0.001
04/08/2022,05:00:22,0.007,0.0,0.001,0.0
04/08/2022,05:01:13,0.008,0.0,0.001,0.0
04/08/2022,05:02:13,0.008,0.0,0.001,0.0
04/08/2022,05:03:14,0.009,0.0,0.001,0.0
04/08/2022,05:04:13,0.009,0.0,0.001,0.0
04/08/2022,05:05:13,0.009,0.0,0.001,0.0
04/08/2022,05:06:14,0.009,0.0,0.002,0.001
04/08/2022,05:07:14,0.011,0.0,0.002,0.0
04/08/2022,05:08:14,0.012,0.0,0.002,0.0
04/08/2022,05:09:13,0.011,0.0,0.002,0.0
04/08/2022,05:10:14,0.012,0.0,0.002,0.0
04/08/2022,05:11:14,0.012,0.0,0.003,0.001
04/08/2022,05:12:14,0.012,0.0,0.003,0.0
04/08/2022,05:13:12,0.013,0.0,0.003,0.0
04/08/2022,05:14:14,0.015,0.0,0.003,0.0
04/08/2022,05:15:13,0.013,0.0,0.003,0.0
04/08/2022,05:16:14,0.014,0.0,0.004,0.001
04/08/2022,05:17:14,0.015,0.0,0.004,0.0
04/08/2022,05:18:14,0.016,0.0,0.004,0.0
04/08/2022,05:19:14,0.016,0.0,0.004,0.0
04/08/2022,05:20:14,0.017,0.0,0.005,0.001
04/08/2022,05:21:13,0.017,0.0,0.005,0.0
04/08/2022,05:22:13,0.018,0.0,0.005,0.0
04/08/2022,05:23:14,0.018,0.0,0.006,0.001
04/08/2022,05:24:22,0.019,0.0,0.006,0.0
04/08/2022,05:25:13,0.019,0.0,0.006,0.0
04/08/2022,05:26:22,0.020,0.0,0.007,0.001
04/08/2022,05:27:13,0.021,0.0,0.007,0.0
04/08/2022,05:28:14,0.021,0.0,0.007,0.0
04/08/2022,05:29:13,0.022,0.0,0.008,0.001
04/08/2022,05:30:13,0.023,0.0,0.008,0.0
04/08/2022,05:31:14,0.023,0.0,0.008,0.0
04/08/2022,05:32:13,0.024,0.0,0.009,0.001
04/08/2022,05:33:14,0.025,0.0,0.009,0.0
04/08/2022,05:34:13,0.026,0.0,0.01,0.001
04/08/2022,05:35:14,0.027,0.0,0.01,0.0
04/08/2022,05:36:14,0.028,0.0,0.01,0.0
04/08/2022,05:37:14,0.028,0.0,0.011,0.001
04/08/2022,05:38:14,0.030,0.0,0.011,0.0
04/08/2022,05:39:13,0.031,0.0,0.012,0.001
04/08/2022,05:40:14,0.031,0.0,0.012,0.0
04/08/2022,05:41:13,0.032,0.0,0.013,0.001
04/08/2022,05:42:14,0.035,0.0,0.014,0.001
04/08/2022,05:43:13,0.035,0.0,0.014,0.0
04/08/2022,05:44:14,0.037,0.0,0.015,0.001
04/08/2022,05:45:13,0.037,0.0,0.015,0.0
04/08/2022,05:46:13,0.038,0.0,0.016,0.001
04/08/2022,05:47:14,0.038,0.0,0.017,0.001
04/08/2022,05:48:14,0.040,0.0,0.017,0.0
04/08/2022,05:49:14,0.040,0.0,0.018,0.001
04/08/2022,05:50:22,0.042,0.0,0.019,0.001
04/08/2022,05:51:13,0.042,0.0,0.019,0.0
04/08/2022,05:52:14,0.043,0.0,0.02,0.001
04/08/2022,05:53:22,0.045,0.0,0.021,0.001
04/08/2022,05:54:14,0.046,0.0,0.021,0.0
04/08/2022,05:55:14,0.048,0.0,0.022,0.001
04/08/2022,05:56:14,0.049,0.0,0.023,0.001
04/08/2022,05:57:14,0.051,0.0,0.024,0.001
04/08/2022,05:58:14,0.053,0.0,0.025,0.001
04/08/2022,05:59:13,0.054,0.0,0.026,0.001
04/08/2022,06:00:14,0.055,0.0,0.027,0.001
04/08/2022,06:01:14,0.056,0.0,0.027,0.0
04/08/2022,06:02:14,0.058,0.0,0.028,0.001
04/08/2022,06:03:14,0.058,0.0,0.029,0.001
04/08/2022,06:04:14,0.059,0.0,0.03,0.001
04/08/2022,06:05:13,0.060,0.0,0.031,0.001
04/08/2022,06:06:13,0.063,0.0,0.032,0.001
04/08/2022,06:07:14,0.065,0.0,0.033,0.001
04/08/2022,06:08:14,0.066,0.0,0.035,0.002
04/08/2022,06:09:14,0.067,0.0,0.036,0.001
04/08/2022,06:10:13,0.067,0.0,0.037,0.001
04/08/2022,06:11:14,0.069,0.0,0.038,0.001
04/08/2022,06:12:14,0.069,0.0,0.039,0.001
04/08/2022,06:13:13,0.070,0.0,0.04,0.001
04/08/2022,06:14:14,0.071,0.0,0.041,0.001
04/08/2022,06:15:14,0.072,0.0,0.043,0.002
04/08/2022,06:16:14,0.072,0.0,0.044,0.001
04/08/2022,06:17:13,0.074,0.0,0.045,0.001
04/08/2022,06:18:14,0.076,0.0,0.046,0.001
04/08/2022,06:19:22,0.078,0.0,0.048,0.002
04/08/2022,06:20:14,0.080,0.0,0.049,0.001
04/08/2022,06:21:14,0.082,0.0,0.05,0.001
04/08/2022,06:22:24,0.082,0.0,0.052,0.002
04/08/2022,06:23:13,0.084,0.0,0.053,0.001
04/08/2022,06:24:14,0.085,0.0,0.054,0.001
04/08/2022,06:25:13,0.085,0.0,0.056,0.002
04/08/2022,06:26:15,0.087,0.0,0.057,0.001
04/08/2022,06:27:14,0.090,0.0,0.059,0.002
04/08/2022,06:28:13,0.094,0.0,0.06,0.001
04/08/2022,06:29:13,0.095,0.0,0.062,0.002
04/08/2022,06:30:13,0.098,0.0,0.063,0.001
04/08/2022,06:31:14,0.101,0.0,0.065,0.002
04/08/2022,06:32:13,0.105,0.0,0.067,0.002
04/08/2022,06:33:14,0.107,0.0,0.069,0.002
04/08/2022,06:34:14,0.110,0.0,0.07,0.001
04/08/2022,06:35:14,0.110,0.0,0.072,0.002
04/08/2022,06:36:13,0.113,0.0,0.074,0.002
04/08/2022,06:37:13,0.113,0.0,0.076,0.002
04/08/2022,06:38:14,0.114,0.0,0.078,0.002
04/08/2022,06:39:13,0.114,0.0,0.08,0.002
04/08/2022,06:40:14,0.115,0.0,0.082,0.002
04/08/2022,06:41:14,0.117,0.0,0.084,0.002
04/08/2022,06:42:14,0.117,0.0,0.085,0.001
04/08/2022,06:43:13,0.118,0.0,0.087,0.002
04/08/2022,06:44:13,0.119,0.0,0.089,0.002
04/08/2022,06:45:22,0.120,0.0,0.092,0.003
04/08/2022,06:46:14,0.122,0.0,0.093,0.001
04/08/2022,06:47:14,0.124,0.0,0.095,0.002
04/08/2022,06:48:22,0.126,0.0,0.098,0.003
04/08/2022,06:49:13,0.128,0.0,0.1,0.002
04/08/2022,06:50:14,0.131,0.0,0.102,0.002
04/08/2022,06:51:14,0.132,0.0,0.104,0.002
04/08/2022,06:52:14,0.135,0.0,0.106,0.002
04/08/2022,06:53:14,0.137,0.0,0.109,0.003
04/08/2022,06:54:14,0.141,0.0,0.111,0.002
04/08/2022,06:55:14,0.135,0.0,0.113,0.002
04/08/2022,06:56:14,0.128,0.0,0.115,0.002
04/08/2022,06:57:13,0.126,0.0,0.118,0.003
04/08/2022,06:58:13,0.121,0.0,0.12,0.002
04/08/2022,06:59:13,0.118,0.0,0.122,0.002
04/08/2022,07:00:14,0.123,0.0,0.124,0.002
04/08/2022,07:01:13,0.123,0.0,0.126,0.002
04/08/2022,07:02:14,0.128,0.0,0.128,0.002
04/08/2022,07:03:22,0.135,0.0,0.13,0.002
04/08/2022,07:04:13,0.141,0.0,0.132,0.002
04/08/2022,07:05:14,0.148,0.0,0.135,0.003
04/08/2022,07:06:14,0.155,0.0,0.137,0.002
04/08/2022,07:07:13,0.156,0.0,0.14,0.003
04/08/2022,07:08:14,0.156,0.0,0.142,0.002
04/08/2022,07:09:14,0.157,0.0,0.145,0.003
04/08/2022,07:10:14,0.167,0.0,0.148,0.003
04/08/2022,07:11:14,0.167,0.0,0.15,0.002
04/08/2022,07:12:05,0.174,0.0,0.153,0.003
04/08/2022,07:13:15,0.181,0.0,0.156,0.003
04/08/2022,07:14:14,0.183,0.0,0.159,0.003
04/08/2022,07:15:13,0.205,0.0,0.162,0.003
04/08/2022,07:16:14,0.195,0.0,0.166,0.004
04/08/2022,07:17:22,0.200,0.0,0.169,0.003
04/08/2022,07:18:13,0.199,0.0,0.172,0.003
04/08/2022,07:19:14,0.201,0.0,0.176,0.004
04/08/2022,07:20:14,0.214,0.0,0.179,0.003
04/08/2022,07:21:16,0.216,0.0,0.183,0.004
04/08/2022,07:22:13,0.215,0.0,0.186,0.003
04/08/2022,07:23:13,0.223,1.0,0.19,0.004
04/08/2022,07:24:14,0.226,1.0,0.194,0.004
04/08/2022,07:25:14,0.228,1.0,0.197,0.003
04/08/2022,07:26:14,0.232,1.0,0.201,0.004
04/08/2022,07:27:14,0.236,1.0,0.205,0.004
04/08/2022,07:28:16,0.240,1.0,0.209,0.004
04/08/2022,07:29:13,0.244,1.0,0.213,0.004
04/08/2022,07:30:14,0.249,1.0,0.217,0.004
04/08/2022,07:31:14,0.250,1.0,0.221,0.004
04/08/2022,07:32:14,0.254,1.0,0.226,0.005
04/08/2022,07:33:14,0.257,1.0,0.23,0.004
04/08/2022,07:34:13,0.261,1.0,0.234,0.004
04/08/2022,07:35:15,0.269,1.0,0.239,0.005
04/08/2022,07:36:14,0.281,1.0,0.243,0.004
04/08/2022,07:37:14,0.287,1.0,0.248,0.005
04/08/2022,07:38:14,0.298,1.0,0.253,0.005
04/08/2022,07:39:14,0.309,1.0,0.258,0.005
04/08/2022,08:35:16,0.580,1.0,0.677,0.419
04/08/2022,08:36:05,0.532,1.0,0.685,0.008
04/08/2022,08:37:16,0.513,1.0,0.695,0.01
04/08/2022,08:38:14,0.500,1.0,0.703,0.008
04/08/2022,08:39:14,0.514,1.0,0.712,0.009
04/08/2022,08:40:14,0.520,1.0,0.72,0.008
04/08/2022,08:41:22,0.533,1.0,0.73,0.01
04/08/2022,08:42:14,0.553,1.0,0.738,0.008
04/08/2022,08:43:14,0.579,1.0,0.747,0.009
04/08/2022,08:44:22,0.713,2.0,0.76,0.013
04/08/2022,08:45:14,0.680,2.0,0.77,0.01
04/08/2022,08:46:22,0.752,2.0,0.784,0.014
04/08/2022,08:47:14,0.641,1.0,0.794,0.01
04/08/2022,08:48:14,0.617,1.0,0.804,0.01
04/08/2022,08:49:22,0.633,1.0,0.816,0.012
04/08/2022,08:50:14,0.745,2.0,0.826,0.01
04/08/2022,08:51:14,0.774,2.0,0.838,0.012
04/08/2022,08:52:22,0.800,2.0,0.853,0.015
04/08/2022,08:53:13,0.849,2.0,0.865,0.012
04/08/2022,08:54:13,0.799,2.0,0.879,0.014
04/08/2022,08:55:14,0.841,2.0,0.892,0.013
04/08/2022,08:56:14,0.837,2.0,0.906,0.014
04/08/2022,08:57:14,0.832,2.0,0.92,0.014
04/08/2022,08:58:15,0.875,2.0,0.934,0.014
04/08/2022,08:59:14,0.866,2.0,0.949,0.015
04/08/2022,09:00:14,0.815,2.0,0.963,0.014
04/08/2022,09:01:14,0.762,2.0,0.976,0.013
04/08/2022,09:02:16,0.755,2.0,0.989,0.013
04/08/2022,09:03:15,0.841,2.0,1.002,0.013
04/08/2022,09:04:14,0.983,2.0,1.017,0.015
04/08/2022,09:05:14,1.083,2.0,1.034,0.017
04/08/2022,09:06:14,1.087,2.0,1.052,0.018
04/08/2022,09:07:14,0.996,2.0,1.07,0.018
04/08/2022,09:08:14,1.009,2.0,1.087,0.017
04/08/2022,09:09:14,1.022,2.0,1.103,0.016
04/08/2022,09:10:16,0.961,2.0,1.12,0.017
04/08/2022,09:11:14,1.002,2.0,1.136,0.016
04/08/2022,09:12:14,1.036,2.0,1.153,0.017
04/08/2022,09:13:14,0.923,2.0,1.17,0.017
04/08/2022,09:14:14,0.827,2.0,1.185,0.015
04/08/2022,09:15:14,0.857,2.0,1.198,0.013
04/08/2022,09:16:14,0.807,2.0,1.212,0.014
04/08/2022,09:17:14,0.733,2.0,1.225,0.013
04/08/2022,09:18:22,0.739,2.0,1.239,0.014
04/08/2022,09:19:14,0.764,2.0,1.25,0.011
04/08/2022,09:20:22,0.804,2.0,1.265,0.015
04/08/2022,09:21:14,0.815,2.0,1.277,0.012
04/08/2022,09:22:14,0.997,2.0,1.292,0.015
04/08/2022,09:23:14,0.894,2.0,1.308,0.016
04/08/2022,09:24:14,0.866,2.0,1.322,0.014
04/08/2022,09:25:14,0.816,2.0,1.337,0.015
04/08/2022,09:26:14,0.830,2.0,1.351,0.014
04/08/2022,09:27:16,0.854,2.0,1.365,0.014
04/08/2022,09:28:14,0.925,2.0,1.38,0.015
04/08/2022,09:29:23,0.948,2.0,1.398,0.018
04/08/2022,09:30:14,0.971,2.0,1.412,0.014
04/08/2022,09:31:14,1.043,2.0,1.428,0.016
04/08/2022,09:32:14,1.135,3.0,1.446,0.018
04/08/2022,09:33:14,1.073,2.0,1.464,0.018
04/08/2022,09:34:14,0.947,2.0,1.481,0.017
04/08/2022,09:35:23,1.073,2.0,1.499,0.018
04/08/2022,09:36:14,0.913,2.0,1.515,0.016
04/08/2022,09:37:14,0.826,2.0,1.529,0.014
04/08/2022,09:38:14,0.948,2.0,1.543,0.014
04/08/2022,09:39:14,0.977,2.0,1.56,0.017
04/08/2022,09:40:14,1.020,2.0,1.576,0.016
04/08/2022,09:41:14,0.927,2.0,1.593,0.017
04/08/2022,09:42:14,1.051,2.0,1.61,0.017
04/08/2022,09:43:14,1.189,3.0,1.629,0.019
04/08/2022,09:44:14,1.265,3.0,1.649,0.02
04/08/2022,09:45:16,1.117,3.0,1.67,0.021
04/08/2022,09:46:14,1.111,3.0,1.688,0.018
04/08/2022,09:47:14,0.984,2.0,1.705,0.017
04/08/2022,09:48:14,1.020,2.0,1.722,0.017
04/08/2022,09:49:14,1.294,3.0,1.743,0.021
04/08/2022,09:50:14,1.262,3.0,1.764,0.021
04/08/2022,09:51:14,1.070,2.0,1.785,0.021
04/08/2022,09:52:14,0.964,2.0,1.802,0.017
04/08/2022,09:53:14,0.939,2.0,1.817,0.015
04/08/2022,09:54:15,0.946,2.0,1.833,0.016
04/08/2022,09:55:23,1.027,2.0,1.851,0.018
04/08/2022,09:56:14,0.945,2.0,1.866,0.015
04/08/2022,09:57:14,0.931,2.0,1.882,0.016
04/08/2022,09:58:31,1.034,2.0,1.902,0.02
04/08/2022,10:00:14,0.919,2.0,1.929,0.027
04/08/2022,10:01:22,0.937,2.0,1.946,0.017
04/08/2022,10:02:14,1.231,3.0,1.961,0.015
04/08/2022,10:03:23,0.850,2.0,1.981,0.02
04/08/2022,10:04:14,0.811,2.0,1.993,0.012
04/08/2022,10:05:14,0.947,2.0,2.006,0.013
04/08/2022,10:06:22,0.808,2.0,2.023,0.017
04/08/2022,10:07:14,0.811,2.0,2.035,0.012
04/08/2022,10:08:14,0.809,2.0,2.049,0.014
04/08/2022,10:09:14,0.818,2.0,2.062,0.013
04/08/2022,10:10:14,0.847,2.0,2.076,0.014
04/08/2022,10:11:14,0.864,2.0,2.09,0.014
04/08/2022,10:12:14,0.865,2.0,2.105,0.015
04/08/2022,10:13:14,0.884,2.0,2.119,0.014
04/08/2022,10:14:14,0.939,2.0,2.135,0.016
04/08/2022,10:15:14,0.849,2.0,2.149,0.014
04/08/2022,10:16:15,0.852,2.0,2.163,0.014
04/08/2022,10:17:14,0.873,2.0,2.177,0.014
04/08/2022,10:18:15,0.908,2.0,2.192,0.015
04/08/2022,10:19:14,0.890,2.0,2.207,0.015
04/08/2022,10:20:14,0.931,2.0,2.222,0.015
04/08/2022,10:21:14,0.986,2.0,2.238,0.016
04/08/2022,10:22:14,1.152,3.0,2.258,0.02
04/08/2022,10:23:14,1.424,3.0,2.279,0.021
04/08/2022,10:24:14,1.498,3.0,2.304,0.025
04/08/2022,10:25:14,1.450,3.0,2.329,0.025
04/08/2022,10:26:14,1.335,3.0,2.352,0.023
04/08/2022,10:27:15,1.221,3.0,2.374,0.022
04/08/2022,10:28:14,1.126,3.0,2.393,0.019
04/08/2022,10:29:14,1.812,4.0,2.418,0.025
04/08/2022,10:30:14,1.831,4.0,2.449,0.031
04/08/2022,10:31:14,1.852,4.0,2.479,0.03
04/08/2022,10:32:14,1.728,4.0,2.51,0.031
04/08/2022,10:33:14,1.691,4.0,2.539,0.029
04/08/2022,10:34:14,1.742,4.0,2.568,0.029
04/08/2022,10:35:22,1.898,4.0,2.602,0.034
04/08/2022,10:36:14,1.424,3.0,2.629,0.027
04/08/2022,10:37:14,1.912,4.0,2.656,0.027
04/08/2022,10:38:14,1.615,4.0,2.68,0.024
04/08/2022,10:39:14,1.035,2.0,2.7,0.02
04/08/2022,10:40:22,1.473,3.0,2.72,0.02
04/08/2022,10:41:14,1.013,2.0,2.736,0.016
04/08/2022,10:42:14,1.037,2.0,2.753,0.017
04/08/2022,10:43:14,1.084,2.0,2.771,0.018
04/08/2022,10:44:14,1.167,3.0,2.79,0.019
04/08/2022,10:45:14,1.896,4.0,2.815,0.025
04/08/2022,10:46:15,1.931,4.0,2.847,0.032
04/08/2022,10:47:14,1.972,5.0,2.88,0.033
04/08/2022,10:48:14,1.319,3.0,2.909,0.029
04/08/2022,10:49:14,1.295,3.0,2.932,0.023
04/08/2022,10:50:14,1.847,4.0,2.954,0.022
04/08/2022,10:51:14,2.020,5.0,2.988,0.034
04/08/2022,10:52:16,2.061,5.0,3.023,0.035
04/08/2022,10:53:31,1.787,4.0,3.057,0.034
04/08/2022,10:55:15,2.004,5.0,3.113,0.056
04/08/2022,10:56:14,1.960,5.0,3.146,0.033
04/08/2022,10:57:16,2.008,5.0,3.18,0.034
04/08/2022,10:58:14,2.025,5.0,3.212,0.032
04/08/2022,10:59:15,1.995,5.0,3.246,0.034
04/08/2022,11:00:14,1.942,4.0,3.279,0.033
04/08/2022,11:01:15,1.579,4.0,3.31,0.031
04/08/2022,11:02:14,1.227,3.0,3.332,0.022
04/08/2022,11:03:14,1.411,3.0,3.354,0.022
04/08/2022,11:04:14,1.262,3.0,3.376,0.022
04/08/2022,11:05:14,1.273,3.0,3.398,0.022
04/08/2022,11:06:14,1.264,3.0,3.42,0.022
04/08/2022,11:07:14,1.242,3.0,3.44,0.02